Regional Weather Roundup
Issued by NWS

Home | Current Version | Previous Version | Text Only | Print | Product List | Glossary Off
Versions: 1 2 3 4 5 6 7 8 9 10 11 12 13 14 15 16 17 18 19 20 21 22 23 24 25 26 27 28 29 30 31 32 33 34 35 36 37 38 39 40 41 42 43 44 45 46 47 48 49 50

000
ASUS43 KOAX 252110
RWRNE

WEATHER ROUNDUP FOR NEBRASKA
NATIONAL WEATHER SERVICE OMAHA NE
400 PM CDT WED MAY 25 2016

NOTES: SATELLITE DATA IS BEING USED TO AUGMENT CLOUD COVER ABOVE
       12000 FEET.
       "FAIR" INDICATES FEW OR NO CLOUDS BELOW 12,000 FEET WITH NO
       SIGNIFICANT WEATHER AND/OR OBSTRUCTIONS TO VISIBILITY.

  * THESE STATIONS DO NOT REPORT WEATHER SUCH AS RAIN...SNOW OR FOG.

NEZ001>004-019>022-054>056-252200-
NEBRASKA PANHANDLE

CITY           SKY/WX    TMP DP  RH WIND       PRES   REMARKS
SCOTTSBLUFF    MOSUNNY   72  36  26 W9        29.92S
ALLIANCE       SUNNY     73  37  27 W18G24    29.91F
CHADRON        SUNNY     72  44  36 W9        29.88F
KIMBALL        PTSUNNY   61  36  40 NW13      29.97F
SIDNEY         CLOUDY    66  39  37 N12       29.95F
$$

NEZ057>060-069>072-079>082-252200-
SOUTHWEST NEBRASKA

CITY           SKY/WX    TMP DP  RH WIND       PRES   REMARKS
NORTH PLATTE   SUNNY     77  56  48 W7        29.87F
IMPERIAL       SUNNY     77  52  41 W7        29.90F
LEXINGTON      SUNNY     77  58  52 NW7       29.86F
MCCOOK         SUNNY     80  56  43 N5        29.86F
OGALLALA       SUNNY     76  48  36 W7        29.91R
$$

NEZ005>010-023>029-035>040-094-252200-
NORTH CENTRAL NEBRASKA

CITY           SKY/WX    TMP DP  RH WIND       PRES   REMARKS
VALENTINE      SUNNY     79  47  32 W14       29.82F
AINSWORTH      SUNNY     78  51  39 W12       29.83F
BROKEN BOW     SUNNY     77  56  48 W8        29.85F
O`NEILL        MOSUNNY   81  55  41 SW13      29.82F
ORD            SUNNY     78  56  46 VRB5      29.82F
THEDFORD       SUNNY     80  52  38 W14G25    29.86S
$$

NEZ041-046>049-061>064-073>077-083>087-252200-
SOUTH CENTRAL NEBRASKA

CITY           SKY/WX    TMP DP  RH WIND       PRES   REMARKS
GRAND ISLAND   CLOUDY    78  62  57 W6        29.85F
AURORA         CLOUDY    76  65  67 SW13      29.85F
HASTINGS       PTSUNNY   74  64  71 SW9       29.86F
HEBRON         CLOUDY    76  68  76 S8        29.84F
HOLDREGE       CLOUDY    75  60  58 S5        29.86F
KEARNEY *      PTSUNNY   75  61  60 SE3       29.87F
YORK           CLOUDY    75  64  69 SW10      29.85S
$$

NEZ011>018-030>034-042>045-252200-
NORTHEAST NEBRASKA

CITY           SKY/WX    TMP DP  RH WIND       PRES   REMARKS
NORFOLK        MOSUNNY   80  59  48 SW13      29.82S
ALBION         MOSUNNY   79  59  50 SW8       29.83F
BLAIR          CLOUDY    76  65  69 S10       29.84S
FREMONT        CLOUDY    76  63  64 SW8       29.84F
TEKAMAH        PTSUNNY   83  62  49 S17G26    29.82F
WAYNE          PTSUNNY   81  62  53 W13G18    29.82F
$$

NEZ050>053-065>068-078-088>093-252200-
SOUTHEAST NEBRASKA

CITY           SKY/WX    TMP DP  RH WIND       PRES   REMARKS
LINCOLN        CLOUDY    75  64  68 S12       29.85S
OMAHA EPPLEY   CLOUDY    79  64  60 S13       29.83S
BEATRICE       SUNNY     76  67  75 S13G18    29.85S
FALLS CITY     MOSUNNY   80  67  64 S13G23    29.85F
NEBRASKA CITY  CLOUDY    76  67  71 SW16      29.85S
PLATTSMOUTH    CLOUDY    78  67  69 S15       29.85S
$$

NEZ044-045-051>053-067-252200-
OMAHA AREA

CITY           SKY/WX    TMP DP  RH WIND       PRES   REMARKS
OMAHA EPPLEY   CLOUDY    79  64  60 S13       29.83S
BLAIR          CLOUDY    76  65  69 S10       29.84S
FREMONT        CLOUDY    76  63  64 SW8       29.84F
MILLARD        CLOUDY    77  65  65 S9        29.84S
OFFUTT AFB     CLOUDY    78  65  65 S9        29.83S
PLATTSMOUTH    CLOUDY    78  67  69 S15       29.85S
WAHOO          CLOUDY    76  64  66 S12       29.84F
$$



USA.gov is the U.S. government's official web portal to all federal, state and local government web resources and services.